When you browse on this site, cookies collect data to enhance your experience and personalize the content and advertising you see.
Visit our Privacy Policy to learn more. By continuing to use the site, you agree to this use of cookies and data.

Previsão horária em Gabú

Hoje, 18 Setembro, Sexta-feira

Tempo Temperatura Precipitação Vento Pressão Humidade
00:00 +25°C° 0.1 mm 2 m/s 752 mmHg 97%
01:00 +25°C° 0.1 mm 2 m/s 752 mmHg 98%
02:00 +25°C° 0.1 mm 2 m/s 752 mmHg 98%
03:00 +25°C° 0.2 mm 1 m/s 752 mmHg 98%
04:00 +25°C° 0.2 mm 1 m/s 752 mmHg 98%
05:00 +25°C° 0.2 mm 1 m/s 752 mmHg 98%
06:00 +25°C° 0 mm 1 m/s 753 mmHg 97%
07:00 +24°C° 0 mm 0 m/s 753 mmHg 96%
08:00 +24°C° 0 mm 0 m/s 754 mmHg 95%
09:00 +28°C° 0 mm 1 m/s 754 mmHg 89%
10:00 +29°C° 0 mm 1 m/s 753 mmHg 83%
11:00 +30°C° 0 mm 2 m/s 753 mmHg 78%
12:00 +31°C° 0 mm 2 m/s 752 mmHg 75%
13:00 +31°C° 0 mm 2 m/s 752 mmHg 73%
14:00 +32°C° 0 mm 2 m/s 751 mmHg 70%
15:00 +31°C° 0 mm 2 m/s 751 mmHg 74%
16:00 +31°C° 0 mm 1 m/s 751 mmHg 79%
17:00 +30°C° 0 mm 1 m/s 751 mmHg 83%
18:00 +29°C° 1.5 mm 1 m/s 752 mmHg 86%
19:00 +28°C° 1.5 mm 2 m/s 753 mmHg 90%
20:00 +27°C° 1.5 mm 2 m/s 753 mmHg 94%
21:00 +26°C° 1.1 mm 2 m/s 754 mmHg 95%
22:00 +25°C° 1.1 mm 1 m/s 754 mmHg 96%
23:00 +24°C° 1.1 mm 1 m/s 754 mmHg 97%

Amanhã, 19 Setembro, Sábado

Tempo Temperatura Precipitação Vento Pressão Humidade
00:00 +24°C° 0.2 mm 1 m/s 754 mmHg 97%
01:00 +24°C° 0.2 mm 1 m/s 753 mmHg 97%
02:00 +24°C° 0.2 mm 1 m/s 753 mmHg 97%
03:00 +24°C° 0.1 mm 1 m/s 753 mmHg 97%
04:00 +22°C° 0.1 mm 0 m/s 753 mmHg 97%
05:00 +22°C° 0.1 mm 0 m/s 753 mmHg 97%
06:00 +23°C° 0.1 mm 0 m/s 753 mmHg 97%
07:00 +23°C° 0.1 mm 0 m/s 754 mmHg 96%
08:00 +23°C° 0.1 mm 0 m/s 755 mmHg 95%
09:00 +25°C° 0.9 mm 0 m/s 755 mmHg 92%
10:00 +28°C° 0.9 mm 1 m/s 754 mmHg 88%
11:00 +29°C° 0.9 mm 1 m/s 754 mmHg 85%
12:00 +29°C° 0.5 mm 1 m/s 754 mmHg 83%
13:00 +30°C° 0.5 mm 1 m/s 753 mmHg 81%
14:00 +28°C° 0.5 mm 0 m/s 753 mmHg 80%
15:00 +30°C° 0.1 mm 1 m/s 752 mmHg 81%
16:00 +29°C° 0.1 mm 1 m/s 752 mmHg 82%
17:00 +29°C° 0.1 mm 1 m/s 752 mmHg 84%
18:00 +28°C° 0 mm 1 m/s 753 mmHg 86%
19:00 +27°C° 0 mm 1 m/s 754 mmHg 89%
20:00 +26°C° 0 mm 1 m/s 754 mmHg 92%
21:00 +26°C° 0 mm 1 m/s 754 mmHg 93%
22:00 +26°C° 0 mm 1 m/s 755 mmHg 95%
23:00 +25°C° 0 mm 1 m/s 755 mmHg 97%

Depois de amanhã, 20 Setembro, Domingo

Tempo Temperatura Precipitação Vento Pressão Humidade
00:00 +25°C° 0 mm 1 m/s 754 mmHg 97%
01:00 +25°C° 0 mm 1 m/s 754 mmHg 98%
02:00 +24°C° 0 mm 1 m/s 754 mmHg 98%
03:00 +24°C° 0 mm 1 m/s 754 mmHg 98%
04:00 +24°C° 0 mm 1 m/s 754 mmHg 98%
05:00 +24°C° 0 mm 1 m/s 754 mmHg 98%
06:00 +25°C° 0 mm 1 m/s 754 mmHg 95%
07:00 +26°C° 0 mm 2 m/s 755 mmHg 92%
08:00 +27°C° 0 mm 2 m/s 755 mmHg 89%
09:00 +29°C° 0 mm 2 m/s 755 mmHg 83%
10:00 +30°C° 0 mm 2 m/s 755 mmHg 77%
11:00 +31°C° 0 mm 2 m/s 755 mmHg 71%
12:00 +32°C° 0.1 mm 2 m/s 754 mmHg 72%
13:00 +32°C° 0.1 mm 1 m/s 753 mmHg 73%
14:00 +32°C° 0.1 mm 1 m/s 753 mmHg 74%
15:00 +31°C° 0.2 mm 1 m/s 753 mmHg 77%
16:00 +30°C° 0.2 mm 1 m/s 753 mmHg 81%
17:00 +29°C° 0.2 mm 1 m/s 752 mmHg 84%
18:00 +28°C° 0.1 mm 1 m/s 753 mmHg 87%
19:00 +27°C° 0.1 mm 1 m/s 754 mmHg 91%
20:00 +26°C° 0.1 mm 1 m/s 754 mmHg 94%
21:00 +26°C° 0.1 mm 1 m/s 755 mmHg 95%
22:00 +26°C° 0.1 mm 1 m/s 755 mmHg 95%
23:00 +25°C° 0.1 mm 1 m/s 755 mmHg 96%

21 Setembro, Segunda-feira

Tempo Temperatura Precipitação Vento Pressão Humidade
00:00 +25°C° 0.1 mm 1 m/s 755 mmHg 96%
01:00 +25°C° 0.1 mm 1 m/s 754 mmHg 97%
02:00 +25°C° 0.1 mm 1 m/s 754 mmHg 97%
03:00 +25°C° 1.9 mm 1 m/s 754 mmHg 98%
04:00 +25°C° 1.9 mm 1 m/s 754 mmHg 98%
05:00 +25°C° 1.9 mm 1 m/s 754 mmHg 98%
06:00 +25°C° 1 mm 1 m/s 755 mmHg 97%
07:00 +25°C° 1 mm 1 m/s 755 mmHg 96%
08:00 +26°C° 1 mm 1 m/s 755 mmHg 95%
09:00 +28°C° 0 mm 1 m/s 755 mmHg 87%
10:00 +30°C° 0 mm 1 m/s 755 mmHg 79%
11:00 +31°C° 0 mm 1 m/s 755 mmHg 70%
12:00 +32°C° 0 mm 1 m/s 755 mmHg 68%
13:00 +33°C° 0 mm 1 m/s 754 mmHg 65%
14:00 +33°C° 0 mm 1 m/s 754 mmHg 62%
15:00 +31°C° 3.1 mm 1 m/s 753 mmHg 73%
16:00 +28°C° 3.1 mm 1 m/s 753 mmHg 84%
17:00 +26°C° 3.1 mm 1 m/s 753 mmHg 95%
18:00 +26°C° 0 mm 1 m/s 753 mmHg 94%
19:00 +25°C° 0 mm 1 m/s 754 mmHg 92%
20:00 +25°C° 0 mm 1 m/s 754 mmHg 91%
21:00 +25°C° 0 mm 1 m/s 754 mmHg 92%
22:00 +22°C° 0 mm 0 m/s 755 mmHg 92%
23:00 +22°C° 0 mm 0 m/s 755 mmHg 93%

22 Setembro, Terça-feira

Tempo Temperatura Precipitação Vento Pressão Humidade
00:00 +22°C° 0 mm 0 m/s 754 mmHg 94%
01:00 +22°C° 0 mm 0 m/s 754 mmHg 94%
02:00 +24°C° 0 mm 1 m/s 754 mmHg 95%
03:00 +24°C° 0 mm 1 m/s 754 mmHg 96%
04:00 +23°C° 0 mm 1 m/s 754 mmHg 96%
05:00 +21°C° 0 mm 0 m/s 754 mmHg 97%
06:00 +23°C° 0 mm 0 m/s 754 mmHg 94%
07:00 +24°C° 0 mm 0 m/s 754 mmHg 91%
08:00 +25°C° 0 mm 0 m/s 755 mmHg 88%
09:00 +27°C° 0 mm 0 m/s 755 mmHg 80%
10:00 +30°C° 0 mm 0 m/s 754 mmHg 72%
11:00 +32°C° 0 mm 0 m/s 754 mmHg 64%
12:00 +34°C° 0 mm 1 m/s 754 mmHg 64%
13:00 +33°C° 0 mm 1 m/s 753 mmHg 64%
14:00 +33°C° 0 mm 1 m/s 752 mmHg 64%
15:00 +33°C° 0 mm 1 m/s 752 mmHg 68%
16:00 +32°C° 0 mm 1 m/s 752 mmHg 72%
17:00 +31°C° 0 mm 1 m/s 752 mmHg 76%
18:00 +30°C° 0 mm 1 m/s 753 mmHg 78%
19:00 +29°C° 0 mm 1 m/s 753 mmHg 81%
20:00 +28°C° 0 mm 1 m/s 754 mmHg 84%
21:00 +28°C° 0 mm 1 m/s 754 mmHg 87%
22:00 +27°C° 0 mm 2 m/s 754 mmHg 90%
23:00 +26°C° 0 mm 2 m/s 754 mmHg 93%

23 Setembro, Quarta-feira

Tempo Temperatura Precipitação Vento Pressão Humidade
00:00 +26°C° 0 mm 2 m/s 753 mmHg 95%
01:00 +26°C° 0 mm 2 m/s 753 mmHg 97%
02:00 +25°C° 0 mm 1 m/s 753 mmHg 98%
03:00 +25°C° 0 mm 1 m/s 753 mmHg 98%
04:00 +26°C° 0 mm 2 m/s 753 mmHg 97%
05:00 +26°C° 0 mm 2 m/s 753 mmHg 97%
06:00 +26°C° 0 mm 2 m/s 753 mmHg 95%
07:00 +27°C° 0 mm 2 m/s 753 mmHg 92%
08:00 +28°C° 0 mm 3 m/s 754 mmHg 90%
09:00 +29°C° 0 mm 3 m/s 753 mmHg 83%
10:00 +31°C° 0 mm 3 m/s 753 mmHg 77%
11:00 +34°C° 0 mm 3 m/s 753 mmHg 71%
12:00 +34°C° 0 mm 3 m/s 752 mmHg 70%
13:00 +34°C° 0 mm 3 m/s 752 mmHg 69%
14:00 +35°C° 0 mm 3 m/s 751 mmHg 67%
15:00 +34°C° 0.1 mm 3 m/s 751 mmHg 72%
16:00 +32°C° 0.1 mm 2 m/s 751 mmHg 76%
17:00 +31°C° 0.1 mm 2 m/s 751 mmHg 81%
18:00 +30°C° 0 mm 2 m/s 752 mmHg 83%
19:00 +29°C° 0 mm 3 m/s 752 mmHg 85%
20:00 +27°C° 0 mm 3 m/s 753 mmHg 87%
21:00 +27°C° 0 mm 3 m/s 753 mmHg 89%
22:00 +27°C° 0 mm 3 m/s 753 mmHg 90%
23:00 +26°C° 0 mm 3 m/s 753 mmHg 91%
Mostrar mais